^^
MeteoGriva-Weather Station Historical Data
Daily Summary for June 3, 2020 Units:  Metric    English   Both
Daily Weekly Monthly Yearly Custom
  High: Low: Average:
Temperature: 6.5 °C 4.4 °C 5.3 °C
Dew Point: 6.5 °C 4.4 °C 5.3 °C
Humidity: 100% 97.4% 100%
Wind Speed: 4.3km/h 0km/h 1.2km/h
Wind Gust: 8.7km/h - -
Wind- - ESE
Pressure: 1023.4 hPa 1017.3 hPa -
Precipitation: 1.3 mm    
Historical Graphs
 
 
Tabular Data for June 3, 2020
Time Temperature Dew Point Pressure Wind Wind Speed Wind Gust Humidity Rainfall Rate (Hourly) solar
00:04 4.4 °C 4.4 °C 1023.4 hPa NNE 2.8 km/h 4 km/h 100% 0.0 mm 0 W/m2
00:09 4.4 °C 4.4 °C 1023.4 hPa NNE 2 km/h 4 km/h 100% 0.0 mm 0 W/m2
00:14 4.4 °C 4.4 °C 1023.4 hPa North 0.9 km/h 2.9 km/h 100% 0.0 mm 0 W/m2
00:19 4.4 °C 4.4 °C 1023.4 hPa North 0.6 km/h 2.9 km/h 100% 0.0 mm 0 W/m2
00:24 4.4 °C 4.4 °C 1023.4 hPa North 1.2 km/h 3.2 km/h 100% 0.0 mm 0 W/m2
00:29 4.5 °C 4.5 °C 1023.4 hPa North 0.8 km/h 5.8 km/h 100% 0.0 mm 0 W/m2
00:34 4.5 °C 4.5 °C 1023.0 hPa NE 1.7 km/h 2.6 km/h 100% 0.0 mm 0 W/m2
00:39 4.5 °C 4.5 °C 1023.0 hPa NNW 0.2 km/h 2.6 km/h 100% 0.0 mm 0 W/m2
00:44 4.5 °C 4.5 °C 1023.0 hPa NE 0.4 km/h 2.9 km/h 100% 0.0 mm 0 W/m2
00:49 4.5 °C 4.5 °C 1023.0 hPa NE 2 km/h 3.2 km/h 100% 0.0 mm 0 W/m2
00:54 4.5 °C 4.5 °C 1023.0 hPa NE 2.7 km/h 3.5 km/h 100% 0.0 mm 0 W/m2
00:59 4.5 °C 4.5 °C 1023.0 hPa NE 1.8 km/h 3.2 km/h 100% 0.0 mm 0 W/m2
01:04 4.5 °C 4.5 °C 1023.0 hPa NE 2.3 km/h 3.5 km/h 100% 0.0 mm 0 W/m2
01:09 4.5 °C 4.5 °C 1023.0 hPa NNE 2.3 km/h 3.5 km/h 100% 1.8 mm 0 W/m2
01:14 4.5 °C 4.5 °C 1023.0 hPa NE 2.4 km/h 4.7 km/h 100% 0.5 mm 0 W/m2
01:19 4.4 °C 4.4 °C 1023.0 hPa NNE 3.1 km/h 4 km/h 100% 0.8 mm 0 W/m2
01:24 4.4 °C 4.4 °C 1023.0 hPa NNE 3.1 km/h 4.3 km/h 100% 0.8 mm 0 W/m2
01:29 4.4 °C 4.4 °C 1023.0 hPa NNE 2.5 km/h 4 km/h 100% 0.5 mm 0 W/m2
01:34 4.4 °C 4.4 °C 1023.0 hPa NNE 2.6 km/h 4 km/h 100% 0.2 mm 0 W/m2
01:39 4.5 °C 4.5 °C 1023.0 hPa NNE 2 km/h 3.5 km/h 100% 0.0 mm 0 W/m2
01:44 4.5 °C 4.5 °C 1023.0 hPa North 1.2 km/h 3.5 km/h 100% 0.0 mm 0 W/m2
01:49 4.5 °C 4.5 °C 1022.7 hPa NNE 1.7 km/h 3.2 km/h 100% 0.0 mm 0 W/m2
01:54 4.5 °C 4.5 °C 1022.7 hPa NNE 1.6 km/h 3.2 km/h 100% 0.0 mm 0 W/m2
01:59 4.5 °C 4.5 °C 1022.7 hPa NNE 2.2 km/h 3.5 km/h 100% 0.2 mm 0 W/m2
02:04 4.5 °C 4.5 °C 1022.7 hPa NNE 2.5 km/h 4.3 km/h 100% 2.3 mm 0 W/m2
02:09 4.4 °C 4.4 °C 1022.7 hPa NNE 3.6 km/h 6.4 km/h 100% 0.8 mm 0 W/m2
02:14 4.4 °C 4.4 °C 1022.7 hPa NNE 3.4 km/h 6.4 km/h 100% 0.0 mm 0 W/m2
02:19 4.5 °C 4.5 °C 1022.7 hPa NE 2.1 km/h 4.3 km/h 100% 0.0 mm 0 W/m2
02:24 4.5 °C 4.5 °C 1023.0 hPa NNE 2.7 km/h 4.7 km/h 100% 0.0 mm 0 W/m2
02:29 4.5 °C 4.5 °C 1023.0 hPa NNE 3 km/h 5.5 km/h 100% 0.0 mm 0 W/m2
02:34 4.4 °C 4.4 °C 1023.0 hPa NNE 2.9 km/h 5.5 km/h 100% 0.0 mm 0 W/m2
02:39 4.4 °C 4.4 °C 1023.0 hPa NNE 2.9 km/h 5.5 km/h 100% 0.0 mm 0 W/m2
02:44 4.5 °C 4.5 °C 1023.0 hPa NE 2.9 km/h 4.3 km/h 100% 0.0 mm 0 W/m2
02:49 4.4 °C 4.4 °C 1023.0 hPa NNE 3.1 km/h 4.3 km/h 100% 0.0 mm 0 W/m2
02:54 4.4 °C 4.4 °C 1023.0 hPa NE 2.2 km/h 4.3 km/h 100% 0.0 mm 0 W/m2
02:59 4.4 °C 4.4 °C 1023.0 hPa NNE 3 km/h 4.7 km/h 100% 0.0 mm 0 W/m2
03:04 4.4 °C 4.4 °C 1022.7 hPa NNE 2 km/h 4.7 km/h 100% 0.0 mm 0 W/m2
03:09 4.4 °C 4.4 °C 1022.7 hPa NE 1.9 km/h 3.2 km/h 100% 0.0 mm 0 W/m2
03:14 4.4 °C 4.4 °C 1022.7 hPa NNE 1.7 km/h 3.2 km/h 100% 0.0 mm 0 W/m2
03:19 4.4 °C 4.4 °C 1022.7 hPa ENE 0.3 km/h 3.2 km/h 100% 0.0 mm 0 W/m2
03:24 4.4 °C 4.4 °C 1022.7 hPa NE 2.4 km/h 3.2 km/h 100% 0.0 mm 0 W/m2
03:29 4.4 °C 4.4 °C 1022.7 hPa NE 2.1 km/h 3.2 km/h 100% 0.0 mm 0 W/m2
03:34 4.4 °C 4.4 °C 1022.7 hPa NE 1.7 km/h 2.9 km/h 100% 0.0 mm 0 W/m2
03:39 4.4 °C 4.4 °C 1022.7 hPa Calm   2.6 km/h 100% 0.0 mm 0 W/m2
03:44 4.4 °C 4.4 °C 1022.7 hPa Calm   4.3 km/h 100% 0.0 mm 0 W/m2
03:49 4.4 °C 4.4 °C 1022.4 hPa Calm     100% 0.0 mm 0 W/m2
03:54 4.4 °C 4.4 °C 1022.4 hPa Calm     100% 0.0 mm 0 W/m2
03:59 4.4 °C 4.4 °C 1022.4 hPa NE 0.2 km/h 2.1 km/h 100% 0.0 mm 0 W/m2
04:04 4.4 °C 4.4 °C 1022.4 hPa NNW 0.2 km/h 2.6 km/h 100% 0.0 mm 0 W/m2
04:09 4.4 °C 4.4 °C 1022.4 hPa NE 2.2 km/h 3.5 km/h 100% 0.0 mm 0 W/m2
04:14 4.5 °C 4.5 °C 1022.4 hPa NE 2.7 km/h 3.5 km/h 100% 0.0 mm 0 W/m2
04:19 4.4 °C 4.4 °C 1022.4 hPa NE 1.9 km/h 3.2 km/h 100% 0.0 mm 0 W/m2
04:24 4.4 °C 4.4 °C 1022.4 hPa NNE 0.9 km/h 3.2 km/h 100% 0.0 mm 0 W/m2
04:29 4.4 °C 4.4 °C 1022.4 hPa NE 1.1 km/h 3.2 km/h 100% 0.0 mm 0 W/m2
04:34 4.4 °C 4.4 °C 1022.4 hPa NNE 0.6 km/h 3.2 km/h 100% 0.0 mm 0 W/m2
04:39 4.5 °C 4.5 °C 1022.0 hPa NNE 2.2 km/h 3.2 km/h 100% 0.0 mm 0 W/m2
04:44 4.4 °C 4.4 °C 1022.0 hPa NE 1.2 km/h 3.2 km/h 100% 0.0 mm 0 W/m2
04:49 4.4 °C 4.4 °C 1022.0 hPa NE 2 km/h 3.2 km/h 100% 0.0 mm 0 W/m2
04:54 4.4 °C 4.4 °C 1022.0 hPa NE 1.8 km/h 4.3 km/h 100% 0.0 mm 0 W/m2
04:59 4.4 °C 4.4 °C 1022.0 hPa NE 1.6 km/h 3.2 km/h 100% 0.0 mm 0 W/m2
05:04 4.4 °C 4.4 °C 1022.0 hPa NE 1.3 km/h 3.2 km/h 100% 0.0 mm 0 W/m2
05:09 4.4 °C 4.4 °C 1022.0 hPa NNE 0.2 km/h 2.1 km/h 100% 0.0 mm 0 W/m2
05:14 4.5 °C 4.5 °C 1022.0 hPa Calm     100% 3.8 mm 0 W/m2
05:19 4.5 °C 4.5 °C 1022.0 hPa Calm     100% 3.8 mm 0 W/m2
05:24 4.5 °C 4.5 °C 1022.0 hPa Calm     100% 3.3 mm 0 W/m2
05:29 4.5 °C 4.5 °C 1022.0 hPa Calm     100% 3.8 mm 0 W/m2
05:34 4.5 °C 4.5 °C 1022.0 hPa NNE 0.9 km/h 2.6 km/h 100% 2.8 mm 0 W/m2
05:39 4.5 °C 4.5 °C 1022.0 hPa NNE 2.5 km/h 3.5 km/h 100% 2.3 mm 0 W/m2
05:44 4.5 °C 4.5 °C 1022.0 hPa NNE 2.3 km/h 3.5 km/h 100% 2.0 mm 0 W/m2
05:49 4.4 °C 4.4 °C 1022.0 hPa North 1.7 km/h 3.5 km/h 100% 0.0 mm 0 W/m2
05:54 4.4 °C 4.4 °C 1022.0 hPa NNE 0.8 km/h 2.9 km/h 100% 0.0 mm 0 W/m2
05:59 4.4 °C 4.4 °C 1022.0 hPa NNE 1 km/h 4.7 km/h 100% 0.0 mm 0 W/m2
06:04 4.4 °C 4.4 °C 1022.0 hPa North 2 km/h 5 km/h 100% 0.0 mm 0 W/m2
06:09 4.4 °C 4.4 °C 1022.0 hPa North 0.1 km/h 2.6 km/h 100% 0.0 mm 0 W/m2
06:14 4.4 °C 4.4 °C 1022.0 hPa North 0.3 km/h 1.8 km/h 100% 0.0 mm 0 W/m2
06:19 4.4 °C 4.4 °C 1022.0 hPa NNE 0.8 km/h 2.9 km/h 100% 0.0 mm 0 W/m2
06:24 4.5 °C 4.5 °C 1022.0 hPa North 1.7 km/h 3.2 km/h 100% 0.0 mm 0 W/m2
06:29 4.5 °C 4.5 °C 1022.0 hPa NNE 2.2 km/h 4 km/h 100% 0.0 mm 0 W/m2
06:34 4.5 °C 4.5 °C 1022.0 hPa NNE 1.6 km/h 4 km/h 100% 0.0 mm 0 W/m2
06:39 4.5 °C 4.5 °C 1022.0 hPa North 1.9 km/h 4.3 km/h 100% 0.0 mm 0 W/m2
06:44 4.4 °C 4.4 °C 1022.0 hPa NE 0.8 km/h 4.3 km/h 100% 0.0 mm 0 W/m2
06:49 4.5 °C 4.5 °C 1022.0 hPa NE 0.9 km/h 2.9 km/h 100% 0.0 mm 0 W/m2
06:54 4.5 °C 4.5 °C 1022.0 hPa NNE 0.7 km/h 2.6 km/h 100% 0.0 mm 0 W/m2
06:59 4.5 °C 4.5 °C 1022.0 hPa NNE 0.7 km/h 2.9 km/h 100% 0.0 mm 0 W/m2
07:04 4.5 °C 4.5 °C 1022.0 hPa NE 2.2 km/h 4 km/h 100% 0.0 mm 0 W/m2
07:09 4.4 °C 4.4 °C 1022.0 hPa NNW 0.9 km/h 3.2 km/h 100% 0.0 mm 0 W/m2
07:14 4.5 °C 4.5 °C 1022.0 hPa Calm   1.4 km/h 100% 0.0 mm 0 W/m2
07:19 4.5 °C 4.5 °C 1022.0 hPa Calm     100% 0.0 mm 0 W/m2
07:24 4.6 °C 4.6 °C 1022.0 hPa ENE 0.3 km/h 2.9 km/h 100% 0.0 mm 0 W/m2
07:29 4.5 °C 4.5 °C 1022.0 hPa Calm   2.1 km/h 100% 0.0 mm 0 W/m2
07:34 4.5 °C 4.5 °C 1022.0 hPa Calm     100% 0.0 mm 0 W/m2
07:39 4.5 °C 4.5 °C 1022.0 hPa Calm     100% 0.0 mm 0 W/m2
07:44 4.5 °C 4.5 °C 1022.0 hPa Calm     100% 0.0 mm 0 W/m2
07:49 4.5 °C 4.5 °C 1022.0 hPa Calm     100% 0.0 mm 0 W/m2
07:54 4.6 °C 4.6 °C 1022.0 hPa ENE 0.2 km/h 2.6 km/h 100% 0.0 mm 2 W/m2
07:59 4.6 °C 4.6 °C 1022.0 hPa NE 0.6 km/h 2.6 km/h 100% 0.0 mm 2 W/m2
08:04 4.6 °C 4.6 °C 1022.0 hPa NNE 1.3 km/h 2.6 km/h 100% 0.0 mm 3 W/m2
08:09 4.6 °C 4.6 °C 1022.0 hPa Calm   2.1 km/h 100% 0.0 mm 3 W/m2
08:14 4.7 °C 4.7 °C 1022.0 hPa Calm     100% 0.0 mm 4 W/m2
08:19 4.7 °C 4.7 °C 1022.0 hPa Calm     100% 0.0 mm 5 W/m2
08:24 4.7 °C 4.7 °C 1022.0 hPa Calm     100% 0.0 mm 6 W/m2
08:29 4.7 °C 4.7 °C 1022.0 hPa Calm     100% 0.0 mm 7 W/m2
08:34 4.7 °C 4.7 °C 1022.0 hPa Calm     100% 0.0 mm 7 W/m2
08:39 4.7 °C 4.7 °C 1022.0 hPa NE 0.4 km/h 2.1 km/h 100% 0.0 mm 8 W/m2
08:44 4.7 °C 4.7 °C 1022.0 hPa ENE 2.2 km/h 2.9 km/h 100% 0.0 mm 8 W/m2
08:49 4.7 °C 4.7 °C 1022.0 hPa NNE 2.1 km/h 3.2 km/h 100% 0.0 mm 9 W/m2
08:54 4.7 °C 4.7 °C 1022.0 hPa NNE 2.8 km/h 4 km/h 100% 0.0 mm 12 W/m2
08:59 4.7 °C 4.7 °C 1022.0 hPa NNE 2.8 km/h 3.5 km/h 100% 0.0 mm 12 W/m2
09:04 4.7 °C 4.7 °C 1022.0 hPa NNE 2.1 km/h 3.5 km/h 100% 0.0 mm 15 W/m2
09:09 4.7 °C 4.7 °C 1022.0 hPa NNE 2.3 km/h 3.5 km/h 100% 0.0 mm 18 W/m2
09:14 4.7 °C 4.7 °C 1022.0 hPa NNE 0.5 km/h 3.2 km/h 100% 0.0 mm 21 W/m2
09:19 4.7 °C 4.7 °C 1022.0 hPa NNE 0.6 km/h 3.5 km/h 100% 0.0 mm 21 W/m2
09:24 4.8 °C 4.8 °C 1022.0 hPa NE 2 km/h 3.5 km/h 100% 0.0 mm 20 W/m2
09:29 4.8 °C 4.8 °C 1022.0 hPa NE 2.9 km/h 3.5 km/h 100% 0.0 mm 18 W/m2
09:34 4.8 °C 4.8 °C 1022.0 hPa NE 1 km/h 3.5 km/h 100% 0.0 mm 17 W/m2
09:39 4.8 °C 4.8 °C 1022.0 hPa NE 0.9 km/h 3.2 km/h 100% 0.0 mm 16 W/m2
09:44 4.8 °C 4.8 °C 1022.4 hPa NE 3.6 km/h 5.8 km/h 100% 0.0 mm 15 W/m2
09:49 4.8 °C 4.8 °C 1022.4 hPa NNE 2.7 km/h 5.8 km/h 100% 0.0 mm 15 W/m2
09:54 4.9 °C 4.9 °C 1022.4 hPa NNE 2.7 km/h 5.8 km/h 100% 0.0 mm 18 W/m2
09:59 4.9 °C 4.9 °C 1022.4 hPa NNE 1.8 km/h 5.8 km/h 100% 0.0 mm 18 W/m2
10:04 5 °C 5 °C 1022.4 hPa NE 1.9 km/h 4.3 km/h 100% 0.0 mm 15 W/m2
10:09 5 °C 5 °C 1022.4 hPa NNE 0.8 km/h 4 km/h 100% 0.0 mm 22 W/m2
10:14 5 °C 5 °C 1022.4 hPa North 1.3 km/h 4.3 km/h 100% 0.0 mm 27 W/m2
10:19 5 °C 5 °C 1022.4 hPa North 2.6 km/h 4 km/h 100% 0.0 mm 29 W/m2
10:24 5 °C 5 °C 1022.4 hPa NNE 2.4 km/h 3.5 km/h 100% 0.0 mm 27 W/m2
10:29 5 °C 5 °C 1022.4 hPa NE 2.3 km/h 4.3 km/h 100% 0.0 mm 33 W/m2
10:34 5 °C 5 °C 1022.4 hPa NE 1 km/h 4.3 km/h 100% 0.0 mm 37 W/m2
10:39 5 °C 5 °C 1022.4 hPa NNE 1.9 km/h 4.3 km/h 100% 0.0 mm 39 W/m2
10:44 5.1 °C 5.1 °C 1022.4 hPa NNE 2.6 km/h 4.7 km/h 100% 0.0 mm 37 W/m2
10:49 5.1 °C 5.1 °C 1022.4 hPa NNE 1.7 km/h 4.3 km/h 100% 0.0 mm 39 W/m2
10:54 5.1 °C 5.1 °C 1022.4 hPa NE 2.4 km/h 4.7 km/h 100% 0.0 mm 41 W/m2
10:59 5.1 °C 5.1 °C 1022.4 hPa NNE 2.3 km/h 5 km/h 100% 0.0 mm 47 W/m2
11:04 5.1 °C 5.1 °C 1022.4 hPa NE 2.3 km/h 5.5 km/h 100% 0.0 mm 50 W/m2
11:09 5.1 °C 5.1 °C 1022.4 hPa North 2.8 km/h 5.5 km/h 100% 0.0 mm 56 W/m2
11:14 5.1 °C 5.1 °C 1022.4 hPa NNE 2.2 km/h 5.5 km/h 100% 0.0 mm 51 W/m2
11:19 5.1 °C 5.1 °C 1022.4 hPa North 3.5 km/h 8.7 km/h 100% 0.0 mm 41 W/m2
11:24 5.1 °C 5.1 °C 1022.0 hPa North 3.7 km/h 8.7 km/h 100% 0.0 mm 38 W/m2
11:29 5.1 °C 5.1 °C 1022.0 hPa NNE 2 km/h 8.2 km/h 100% 0.0 mm 36 W/m2
11:34 5.1 °C 5.1 °C 1022.0 hPa North 4.2 km/h 7.9 km/h 100% 0.0 mm 33 W/m2
11:39 5.1 °C 5.1 °C 1022.0 hPa North 2.8 km/h 7.6 km/h 100% 0.0 mm 29 W/m2
11:44 5.1 °C 5.1 °C 1022.0 hPa NNE 4.3 km/h 7.6 km/h 100% 0.0 mm 33 W/m2
11:49 5 °C 5 °C 1022.0 hPa NNE 3.2 km/h 6.9 km/h 100% 0.0 mm 33 W/m2
11:54 5.1 °C 5.1 °C 1022.0 hPa NNE 2.8 km/h 5.8 km/h 100% 0.0 mm 33 W/m2
11:59 5.1 °C 5.1 °C 1022.0 hPa NNE 3.1 km/h 5.5 km/h 100% 0.0 mm 35 W/m2
12:04 5.1 °C 5.1 °C 1021.7 hPa NNE 2.4 km/h 5 km/h 100% 0.0 mm 32 W/m2
12:09 5.1 °C 5.1 °C 1021.7 hPa NNW 2.7 km/h 5.8 km/h 100% 0.0 mm 33 W/m2
12:14 5.1 °C 5.1 °C 1021.7 hPa North 2.2 km/h 5.8 km/h 100% 0.0 mm 33 W/m2
12:19 5.2 °C 5.2 °C 1021.7 hPa NNE 1.3 km/h 4.7 km/h 100% 0.0 mm 31 W/m2
12:24 5.2 °C 5.2 °C 1021.7 hPa ENE 0.3 km/h 4.3 km/h 100% 0.0 mm 31 W/m2
12:29 5.2 °C 5.2 °C 1021.7 hPa ENE 1.7 km/h 4.3 km/h 100% 0.0 mm 25 W/m2
12:34 5.2 °C 5.2 °C 1021.3 hPa East 0.4 km/h 4.3 km/h 100% 0.0 mm 30 W/m2
12:39 5.2 °C 5.2 °C 1021.3 hPa NNE 2.1 km/h 5.8 km/h 100% 0.0 mm 29 W/m2
12:44 5.2 °C 5.2 °C 1021.3 hPa NNE 1.9 km/h 7.2 km/h 100% 0.0 mm 23 W/m2
12:49 5.2 °C 5.2 °C 1021.3 hPa NNE 2 km/h 7.2 km/h 100% 0.0 mm 26 W/m2
12:54 5.2 °C 5.2 °C 1021.3 hPa NE 1.6 km/h 5.5 km/h 100% 0.0 mm 32 W/m2
12:59 5.3 °C 5.3 °C 1021.3 hPa NE 1.4 km/h 3.2 km/h 100% 0.0 mm 30 W/m2
13:04 5.3 °C 5.3 °C 1021.3 hPa NE 1.1 km/h 3.2 km/h 100% 0.0 mm 29 W/m2
13:09 5.3 °C 5.3 °C 1021.0 hPa NE 2.6 km/h 6.1 km/h 99.6% 0.0 mm 28 W/m2
13:14 5.4 °C 5.4 °C 1021.0 hPa NE 2 km/h 4.7 km/h 100% 0.0 mm 26 W/m2
13:19 5.4 °C 5.4 °C 1021.0 hPa ENE 2 km/h 8.7 km/h 100% 0.0 mm 27 W/m2
13:24 5.4 °C 5.4 °C 1021.0 hPa NE 0.4 km/h 4 km/h 100% 0.0 mm 28 W/m2
13:29 5.4 °C 5.4 °C 1021.0 hPa ENE 1.9 km/h 4 km/h 100% 0.0 mm 28 W/m2
13:34 5.4 °C 5.4 °C 1020.7 hPa Calm   2.1 km/h 100% 0.0 mm 29 W/m2
13:39 5.4 °C 5.4 °C 1020.7 hPa Calm     100% 0.0 mm 28 W/m2
13:44 5.5 °C 5.5 °C 1020.7 hPa Calm     100% 0.0 mm 28 W/m2
13:49 5.5 °C 5.4 °C 1020.7 hPa Calm     99.4% 0.0 mm 29 W/m2
13:54 5.6 °C 5.5 °C 1020.7 hPa NE 0.2 km/h 2.9 km/h 99% 0.0 mm 26 W/m2
13:59 5.6 °C 5.5 °C 1020.7 hPa Calm     99% 0.0 mm 22 W/m2
14:04 5.6 °C 5.5 °C 1020.7 hPa Calm     99.3% 0.0 mm 23 W/m2
14:09 5.6 °C 5.5 °C 1020.3 hPa ENE 0.9 km/h 3.5 km/h 99.1% 0.0 mm 26 W/m2
14:14 5.6 °C 5.5 °C 1020.3 hPa Calm   3.5 km/h 99.2% 0.0 mm 26 W/m2
14:19 5.6 °C 5.6 °C 1020.3 hPa NNW 0.2 km/h 2.1 km/h 100% 0.0 mm 19 W/m2
14:24 5.6 °C 5.6 °C 1020.3 hPa Calm   1.8 km/h 100% 0.0 mm 20 W/m2
14:29 5.7 °C 5.6 °C 1020.3 hPa Calm     99.6% 0.0 mm 21 W/m2
14:34 5.7 °C 5.6 °C 1020.3 hPa Calm     99.2% 0.0 mm 23 W/m2
14:39 5.7 °C 5.7 °C 1020.3 hPa Calm     99.6% 0.0 mm 28 W/m2
14:44 5.7 °C 5.7 °C 1020.0 hPa Calm     99.8% 0.0 mm 32 W/m2
14:49 5.7 °C 5.7 °C 1020.0 hPa Calm     99.8% 0.0 mm 29 W/m2
14:54 5.8 °C 5.8 °C 1020.0 hPa Calm     100% 0.0 mm 28 W/m2
14:59 5.8 °C 5.8 °C 1020.0 hPa Calm     100% 0.0 mm 25 W/m2
15:04 5.8 °C 5.8 °C 1020.0 hPa Calm     100% 0.0 mm 19 W/m2
15:09 5.8 °C 5.8 °C 1020.0 hPa Calm     100% 0.0 mm 18 W/m2
15:14 5.8 °C 5.8 °C 1020.0 hPa Calm     100% 0.0 mm 15 W/m2
15:19 5.8 °C 5.8 °C 1019.6 hPa East 1.2 km/h 3.2 km/h 100% 0.0 mm 13 W/m2
15:24 5.8 °C 5.8 °C 1019.6 hPa Calm   3.2 km/h 100% 0.0 mm 12 W/m2
15:29 5.8 °C 5.8 °C 1019.6 hPa Calm   3.2 km/h 100% 0.0 mm 16 W/m2
15:34 5.8 °C 5.8 °C 1019.6 hPa Calm     100% 0.0 mm 17 W/m2
15:39 5.8 °C 5.8 °C 1019.6 hPa Calm     100% 0.0 mm 10 W/m2
15:44 5.9 °C 5.9 °C 1020.0 hPa Calm     100% 0.0 mm 8 W/m2
15:49 5.9 °C 5.9 °C 1020.0 hPa Calm     100% 0.0 mm 7 W/m2
15:54 5.9 °C 5.9 °C 1019.6 hPa Calm   4.3 km/h 100% 0.0 mm 8 W/m2
15:59 6 °C 6 °C 1019.6 hPa Calm   3.2 km/h 100% 0.0 mm 7 W/m2
16:04 6 °C 6 °C 1019.6 hPa Calm   2.9 km/h 100% 0.0 mm 6 W/m2
16:09 6 °C 6 °C 1019.6 hPa South 2.9 km/h 7.2 km/h 100% 0.0 mm 5 W/m2
16:14 6.1 °C 6 °C 1019.6 hPa SSE 0.9 km/h 7.2 km/h 99.4% 0.0 mm 4 W/m2
16:19 6.1 °C 6.1 °C 1019.6 hPa South 1.3 km/h 5.5 km/h 100% 0.0 mm 4 W/m2
16:24 6.1 °C 6.1 °C 1019.6 hPa South 1.8 km/h 6.9 km/h 100% 0.0 mm 4 W/m2
16:29 6.1 °C 6 °C 1019.6 hPa SSW 2.9 km/h 7.2 km/h 99.2% 0.0 mm 3 W/m2
16:34 6.1 °C 6 °C 1019.6 hPa Calm   6.9 km/h 99% 0.0 mm 2 W/m2
16:39 6.1 °C 6.1 °C 1019.6 hPa SSE 0.3 km/h 3.2 km/h 99.6% 0.0 mm 0 W/m2
16:44 6.1 °C 6.1 °C 1019.6 hPa South 0.3 km/h 3.2 km/h 100% 0.0 mm 0 W/m2
16:49 6.1 °C 6 °C 1019.6 hPa SE 1.1 km/h 4.7 km/h 99.1% 0.0 mm 0 W/m2
16:54 6.1 °C 5.9 °C 1019.6 hPa NNE 2.3 km/h 6.9 km/h 98.8% 0.0 mm 0 W/m2
16:59 6.1 °C 5.9 °C 1019.3 hPa SW 0.4 km/h 6.9 km/h 98.4% 0.0 mm 0 W/m2
17:04 6.1 °C 5.9 °C 1019.6 hPa SW 1.9 km/h 7.6 km/h 98.7% 0.0 mm 0 W/m2
17:09 6.2 °C 5.9 °C 1019.6 hPa SW 0.9 km/h 7.6 km/h 98.3% 0.0 mm 0 W/m2
17:14 6.2 °C 6 °C 1019.6 hPa South 1.6 km/h 5.5 km/h 98.3% 0.0 mm 0 W/m2
17:19 6.2 °C 6 °C 1019.6 hPa SSW 0.4 km/h 5.5 km/h 98.3% 0.0 mm 0 W/m2
17:24 6.2 °C 6 °C 1019.3 hPa SW 2.8 km/h 6.1 km/h 98.7% 0.0 mm 0 W/m2
17:29 6.1 °C 5.8 °C 1019.3 hPa WSW 0.2 km/h 6.1 km/h 98.3% 0.0 mm 0 W/m2
17:34 6.1 °C 6 °C 1019.3 hPa Calm   4 km/h 99% 0.0 mm 0 W/m2
17:39 6.1 °C 6 °C 1019.3 hPa SW 0.6 km/h 4 km/h 99% 0.0 mm 0 W/m2
17:44 6.2 °C 6 °C 1019.3 hPa South 2 km/h 6.4 km/h 98.7% 0.0 mm 0 W/m2
17:49 6.2 °C 5.9 °C 1019.3 hPa South 1.5 km/h 6.4 km/h 98% 0.0 mm 0 W/m2
17:54 6.2 °C 6 °C 1019.3 hPa Calm   3.5 km/h 98.4% 0.0 mm 0 W/m2
17:59 6.2 °C 6 °C 1019.3 hPa ENE 0.7 km/h 3.2 km/h 98.7% 0.0 mm 0 W/m2
18:04 6.2 °C 6.1 °C 1019.3 hPa Calm   3.2 km/h 99% 0.0 mm 0 W/m2
18:09 6.2 °C 6.1 °C 1019.3 hPa Calm     99% 0.0 mm 0 W/m2
18:14 6.2 °C 6.1 °C 1019.0 hPa Calm   1.8 km/h 99% 0.0 mm 0 W/m2
18:19 6.2 °C 6.1 °C 1019.0 hPa SW 1.6 km/h 4.7 km/h 98.9% 0.0 mm 0 W/m2
18:24 6.2 °C 5.9 °C 1019.0 hPa WSW 0.4 km/h 4.7 km/h 98.1% 0.0 mm 0 W/m2
18:29 6.2 °C 6 °C 1019.0 hPa SSE 1.2 km/h 6.1 km/h 98.5% 0.0 mm 0 W/m2
18:34 6.3 °C 6 °C 1019.0 hPa Calm   6.1 km/h 98.2% 0.0 mm 0 W/m2
18:39 6.2 °C 6.2 °C 1019.0 hPa NW 0.3 km/h 4.7 km/h 99% 0.0 mm 0 W/m2
18:44 6.3 °C 6.2 °C 1019.0 hPa Calm   2.9 km/h 99% 0.0 mm 0 W/m2
18:49 6.3 °C 6.1 °C 1019.0 hPa West 0.3 km/h 3.2 km/h 98.6% 0.0 mm 0 W/m2
18:54 6.2 °C 6.2 °C 1019.0 hPa Calm   3.2 km/h 99% 0.0 mm 0 W/m2
18:59 6.2 °C 6.1 °C 1019.0 hPa Calm   4.7 km/h 99% 0.0 mm 0 W/m2
19:04 6.2 °C 6.2 °C 1019.0 hPa SSE 0.2 km/h 2.6 km/h 99.4% 0.0 mm 0 W/m2
19:09 6.2 °C 6.1 °C 1019.0 hPa SSE 0.4 km/h 4 km/h 98.8% 0.0 mm 0 W/m2
19:14 6.3 °C 6.2 °C 1019.0 hPa SW 0.1 km/h 5 km/h 99% 0.0 mm 0 W/m2
19:19 6.2 °C 6.1 °C 1019.0 hPa SW 1.8 km/h 5 km/h 99.2% 0.0 mm 0 W/m2
19:24 6.3 °C 6.2 °C 1019.0 hPa South 0.5 km/h 4.7 km/h 99% 0.0 mm 0 W/m2
19:29 6.3 °C 6.1 °C 1019.0 hPa South 2.4 km/h 7.6 km/h 98.3% 0.0 mm 0 W/m2
19:34 6.3 °C 6 °C 1019.0 hPa WSW 0.8 km/h 6.9 km/h 98% 0.0 mm 0 W/m2
19:39 6.4 °C 6.1 °C 1019.0 hPa South 2.5 km/h 6.4 km/h 98% 0.0 mm 0 W/m2
19:44 6.4 °C 6.1 °C 1019.0 hPa SSW 1.5 km/h 5.8 km/h 97.7% 0.0 mm 0 W/m2
19:49 6.4 °C 6 °C 1018.6 hPa SW 0.9 km/h 4.7 km/h 97.4% 0.0 mm 0 W/m2
19:54 6.4 °C 6.1 °C 1018.6 hPa WSW 0.7 km/h 3.2 km/h 98% 0.0 mm 0 W/m2
19:59 6.4 °C 6.2 °C 1018.6 hPa SW 1.7 km/h 7.2 km/h 98.1% 0.0 mm 0 W/m2
20:04 6.5 °C 6.2 °C 1018.6 hPa SSW 0.9 km/h 5.5 km/h 97.8% 0.0 mm 0 W/m2
20:09 6.5 °C 6.2 °C 1018.6 hPa SW 0.8 km/h 4.3 km/h 98% 0.0 mm 0 W/m2
20:14 6.5 °C 6.2 °C 1018.6 hPa Calm   4.7 km/h 98.1% 0.0 mm 0 W/m2
20:19 6.5 °C 6.3 °C 1018.6 hPa Calm   3.2 km/h 98.5% 0.0 mm 0 W/m2
20:24 6.5 °C 6.3 °C 1018.6 hPa WNW 0.6 km/h 3.5 km/h 98.9% 0.0 mm 0 W/m2
20:29 6.4 °C 6.3 °C 1018.6 hPa Calm   3.2 km/h 99% 0.0 mm 0 W/m2
20:34 6.4 °C 6.3 °C 1018.6 hPa Calm     99% 0.0 mm 0 W/m2
20:39 6.4 °C 6.4 °C 1018.6 hPa Calm   2.9 km/h 99.7% 0.0 mm 0 W/m2
20:44 6.4 °C 6.4 °C 1018.6 hPa Calm   2.9 km/h 100% 0.0 mm 0 W/m2
20:49 6.4 °C 6.4 °C 1018.6 hPa Calm     100% 0.0 mm 0 W/m2
20:54 6.4 °C 6.4 °C 1018.3 hPa NNE 0.6 km/h 2.6 km/h 100% 0.0 mm 0 W/m2
20:59 6.3 °C 6.3 °C 1018.3 hPa NW 1.1 km/h 4.3 km/h 100% 0.0 mm 0 W/m2
21:04 6.4 °C 6.3 °C 1018.3 hPa North 0.6 km/h 4.3 km/h 99.6% 0.0 mm 0 W/m2
21:09 6.4 °C 6.3 °C 1018.3 hPa NNE 1.2 km/h 3.2 km/h 99.1% 0.0 mm 0 W/m2
21:14 6.4 °C 6.3 °C 1018.3 hPa Calm     99% 0.0 mm 0 W/m2
21:19 6.4 °C 6.3 °C 1018.0 hPa NE 0.8 km/h 2.9 km/h 99.1% 0.0 mm 0 W/m2
21:24 6.4 °C 6.4 °C 1018.3 hPa NNE 0.3 km/h 2.9 km/h 99.9% 0.0 mm 0 W/m2
21:29 6.4 °C 6.4 °C 1018.3 hPa Calm     99.7% 0.0 mm 0 W/m2
21:34 6.4 °C 6.4 °C 1018.0 hPa North 1.4 km/h 3.2 km/h 100% 0.0 mm 0 W/m2
21:39 6.4 °C 6.4 °C 1018.0 hPa NNE 1 km/h 4.7 km/h 99.8% 0.0 mm 0 W/m2
21:44 6.4 °C 6.3 °C 1018.0 hPa NE 0.4 km/h 3.5 km/h 99.3% 0.0 mm 0 W/m2
21:49 6.4 °C 6.3 °C 1018.0 hPa NE 1.2 km/h 3.2 km/h 99% 0.0 mm 0 W/m2
21:54 6.4 °C 6.3 °C 1018.0 hPa NE 2 km/h 3.2 km/h 99.1% 0.0 mm 0 W/m2
21:59 6.4 °C 6.3 °C 1018.0 hPa North 0.5 km/h 2.9 km/h 99.6% 0.0 mm 0 W/m2
22:04 6.4 °C 6.4 °C 1018.0 hPa NNW 0.1 km/h 1.1 km/h 100% 0.0 mm 0 W/m2
22:09 6.4 °C 6.4 °C 1018.0 hPa NNW 0.6 km/h 1.8 km/h 100% 0.0 mm 0 W/m2
22:14 6.4 °C 6.4 °C 1018.0 hPa NW 1.2 km/h 4.7 km/h 99.9% 0.0 mm 0 W/m2
22:19 6.5 °C 6.4 °C 1018.0 hPa NNE 2.2 km/h 4.7 km/h 99% 0.0 mm 0 W/m2
22:24 6.5 °C 6.3 °C 1018.0 hPa NE 0.8 km/h 3.5 km/h 99% 0.0 mm 0 W/m2
22:29 6.4 °C 6.3 °C 1018.0 hPa NW 0.9 km/h 2.9 km/h 99% 0.2 mm 0 W/m2
22:34 6.4 °C 6.4 °C 1018.0 hPa North 0.4 km/h 2.6 km/h 100% 0.0 mm 0 W/m2
22:39 6.4 °C 6.4 °C 1018.0 hPa NW 1.8 km/h 5.5 km/h 100% 0.0 mm 0 W/m2
22:44 6.5 °C 6.5 °C 1017.6 hPa NW 0.3 km/h 5.5 km/h 99.7% 0.2 mm 0 W/m2
22:49 6.5 °C 6.4 °C 1017.6 hPa Calm   2.6 km/h 99.5% 0.2 mm 0 W/m2
22:54 6.5 °C 6.5 °C 1017.6 hPa SW 0.4 km/h 2.9 km/h 99.7% 0.0 mm 0 W/m2
22:59 6.5 °C 6.4 °C 1017.6 hPa West 0.3 km/h 4.3 km/h 99% 0.0 mm 0 W/m2
23:04 6.5 °C 6.3 °C 1017.6 hPa WSW 0.5 km/h 4.3 km/h 98.8% 0.0 mm 0 W/m2
23:09 6.4 °C 6.3 °C 1017.6 hPa WSW 0.8 km/h 5.5 km/h 99% 0.0 mm 0 W/m2
23:14 6.4 °C 6.2 °C 1017.6 hPa Calm   5.5 km/h 98.4% 0.0 mm 0 W/m2
23:19 6.5 °C 6.4 °C 1017.6 hPa West 0.3 km/h 3.5 km/h 99% 0.0 mm 0 W/m2
23:24 6.4 °C 6.3 °C 1017.6 hPa South 0.4 km/h 4 km/h 99% 0.0 mm 0 W/m2
23:29 6.4 °C 6.3 °C 1017.6 hPa NNW 0.6 km/h 3.2 km/h 98.9% 0.0 mm 0 W/m2
23:34 6.5 °C 6.3 °C 1017.3 hPa NW 0.6 km/h 4.3 km/h 98.5% 0.0 mm 0 W/m2
23:39 6.5 °C 6.3 °C 1017.3 hPa WNW 0.9 km/h 6.1 km/h 98.6% 0.0 mm 0 W/m2
23:44 6.5 °C 6.3 °C 1017.3 hPa NW 1 km/h 4.3 km/h 98.7% 0.0 mm 0 W/m2
23:49 6.5 °C 6.3 °C 1017.3 hPa NNW 0.8 km/h 4.3 km/h 98.4% 0.0 mm 0 W/m2
23:54 6.5 °C 6.4 °C 1017.3 hPa NNE 0.3 km/h 4 km/h 99% 0.0 mm 0 W/m2
23:59 6.5 °C 6.4 °C 1017.3 hPa Calm   2.9 km/h 99% 0.0 mm 0 W/m2
Juneau County Weather
Compliments of Weather Underground - 2 mb